Charlotte, NC

10:20 PM EDT on May 28, 2017 (GMT -0400)
Charlotte-Douglas International

Weather History for KCLT - February, 2014

Change the Weather History Date:

Monday, February 3, 2014

  Actual Average Record
Temperature  
Mean Temperature 59 °F 42 °F  
Max Temperature 72 °F 53 °F 81 °F (1989)
Min Temperature 46 °F 31 °F 8 °F (1917)
Degree Days  
Heating Degree Days 6 23  
Month to date heating degree days 43 70  
Since 1 July heating degree days 2176 2177  
Cooling Degree Days 0 0  
Month to date cooling degree days 0 0  
Year to date cooling degree days 0 0  
Growing Degree Days 9 (Base 50)    
Moisture  
Dew Point 53 °F    
Average Humidity 76    
Maximum Humidity 100    
Minimum Humidity 51    
Precipitation  
Precipitation 0.09 in 0.12 in 1.25 in (1952)
Month to date precipitation 0.09 0.34  
Year to date precipitation 3.00 3.75  
Snow  
Snow 0.00 in 0.10 in 1.50 in (1905)
Month to date snowfall 0.0 0.2  
Since 1 July snowfall 0.9 2.7  
Snow Depth 0.00 in    
Sea Level Pressure  
Sea Level Pressure 29.98 in    
Wind  
Wind Speed 11 mph (South)    
Max Wind Speed 21 mph    
Max Gust Speed 29 mph    
Visibility 10 miles    
Events Rain    
T = Trace of Precipitation, MM = Missing Value Source: NWS Daily Summary

Daily Weather History Graph

Daily Weather History Graph

Search for Another Location

Airport or City:

Trip Planner

Search our weather history database for the weather conditions in past years. The results will help you decide how hot, cold, wet, or windy it might be!

Date:

Astronomy

Feb. 03, 2014 Rise Set
Actual Time 7:21 AM EST 5:54 PM EST
Civil Twilight 6:54 AM EST 6:20 PM EST
Nautical Twilight 6:24 AM EST 6:51 PM EST
Astronomical Twilight 5:54 AM EST 7:20 PM EST
Moon 9:34 AM EST (2/3) 10:30 PM EST (2/3)
Length of Visible Light 11h 26m
Length of Day
10h 32m
Waxing Crescent, 19% of the Moon is Illuminated
Feb 3
Waxing Crescent
Feb 6
First Quarter
Feb 14
Full
Feb 22
Last Quarter
Mar 1
New

Hourly Weather History & Observations

Time (EST) Temp. Windchill Dew Point Humidity Pressure Visibility Wind Dir Wind Speed Gust Speed Precip Events Conditions
12:52 AM 54.0 °F - 51.1 °F 90% 29.96 in 10.0 mi SSE 6.9 mph - N/A   Overcast
1:52 AM 55.9 °F - 52.0 °F 87% 29.94 in 10.0 mi South 11.5 mph - 0.00 in   Overcast
2:14 AM 57.2 °F - 53.6 °F 88% 29.94 in 10.0 mi South 12.7 mph - 0.00 in   Overcast
2:52 AM 61.0 °F - 55.9 °F 83% 29.91 in 10.0 mi South 17.3 mph 23.0 mph 0.00 in   Overcast
3:52 AM 60.1 °F - 55.0 °F 83% 29.88 in 10.0 mi South 16.1 mph 23.0 mph N/A   Overcast
4:20 AM 60.8 °F - 55.4 °F 82% 29.89 in 10.0 mi South 18.4 mph - N/A   Overcast
4:38 AM 59.0 °F - 55.4 °F 88% 29.89 in 10.0 mi South 16.1 mph - N/A   Overcast
4:52 AM 59.0 °F - 55.0 °F 87% 29.87 in 10.0 mi South 13.8 mph - N/A   Overcast
5:52 AM 60.1 °F - 57.0 °F 90% 29.87 in 10.0 mi South 13.8 mph 24.2 mph N/A   Overcast
6:28 AM 60.8 °F - 57.2 °F 88% 29.88 in 10.0 mi South 15.0 mph 21.9 mph N/A   Overcast
6:52 AM 61.0 °F - 57.0 °F 87% 29.87 in 10.0 mi South 13.8 mph - N/A   Overcast
7:42 AM 60.8 °F - 59.0 °F 94% 29.91 in 3.0 mi SSW 15.0 mph 23.0 mph 0.04 in Rain Rain
7:52 AM 61.0 °F - 59.0 °F 93% 29.91 in 7.0 mi SSW 13.8 mph 23.0 mph 0.05 in Rain Light Rain
8:52 AM 61.0 °F - 60.1 °F 97% 29.94 in 7.0 mi SSW 8.1 mph - 0.01 in   Overcast
9:52 AM 63.0 °F - 61.0 °F 93% 29.93 in 10.0 mi South 11.5 mph - 0.02 in   Overcast
10:06 AM 62.6 °F - 60.8 °F 94% 29.93 in 10.0 mi South 13.8 mph - 0.00 in Rain Light Rain
10:52 AM 63.0 °F - 62.1 °F 97% 29.94 in 10.0 mi SW 11.5 mph - 0.01 in   Overcast
11:52 AM 64.9 °F - 59.0 °F 81% 29.96 in 10.0 mi SW 11.5 mph 20.7 mph N/A   Mostly Cloudy
11:59 AM 66.2 °F - 59.0 °F 78% 29.96 in 10.0 mi SW 10.4 mph 18.4 mph N/A   Mostly Cloudy
12:52 PM 69.1 °F - 57.9 °F 68% 29.94 in 10.0 mi WSW 12.7 mph 18.4 mph N/A   Overcast
1:52 PM 71.1 °F - 55.9 °F 59% 29.94 in 10.0 mi WSW 8.1 mph - N/A   Mostly Cloudy
2:52 PM 69.1 °F - 54.0 °F 58% 29.95 in 10.0 mi West 5.8 mph - N/A   Overcast
3:52 PM 70.0 °F - 50.0 °F 49% 29.98 in 10.0 mi NNE 15.0 mph 18.4 mph N/A   Mostly Cloudy
4:52 PM 62.1 °F - 48.9 °F 62% 30.02 in 10.0 mi NNE 12.7 mph - N/A   Mostly Cloudy
5:52 PM 59.0 °F - 48.0 °F 67% 30.05 in 10.0 mi NE 10.4 mph - N/A   Mostly Cloudy
6:52 PM 57.0 °F - 46.0 °F 67% 30.10 in 10.0 mi Variable 6.9 mph - N/A   Mostly Cloudy
7:52 PM 54.0 °F - 45.0 °F 72% 30.12 in 10.0 mi ENE 11.5 mph - N/A   Mostly Cloudy
8:52 PM 50.0 °F - 43.0 °F 77% 30.16 in 10.0 mi ENE 9.2 mph 21.9 mph N/A   Mostly Cloudy
9:52 PM 48.0 °F - 41.0 °F 77% 30.19 in 10.0 mi NE 9.2 mph - N/A   Mostly Cloudy
10:52 PM 46.9 °F - 39.9 °F 77% 30.22 in 10.0 mi ENE 9.2 mph 28.8 mph N/A   Mostly Cloudy
11:52 PM 46.0 °F 40.2 °F 39.0 °F 76% 30.22 in 10.0 mi ENE 12.7 mph - N/A   Overcast